User: anonymous   Login
Location: Regona
(45.2000°N, 9.8167°E)
Time: 03:27:52
(UTC+00:00)
Language:

Cosmos 2263 Rocket - Orbit

View from above orbital plane
View from above orbital plane
View from above satellite
View from above satellite

Ground track
Ground track

The orbit data is extracted from the following two-line orbital elements,

1 22803U 93059B   20221.85919282 -.00000242 +00000-0 -96746-4 0  9998
2 22803 070.9921 348.8251 0015006 073.8856 286.3918 14.16825387390728
Epoch (UTC): 08 August 2020 20:37:14
Eccentricity: 0.0015006
inclination: 70.9921°
perigee height: 825 km
apogee height: 847 km
right ascension of ascending node: 348.8251°
argument of perigee: 73.8856°
revolutions per day: 14.16825387
mean anomaly at epoch: 286.3918°
orbit number at epoch: 39072

The dashed part of the orbit path shows where the satellite is in the earth's shadow,  

DLR